TimePDT,TemperatureF,Dew PointF,Humidity,Sea Level PressureIn,VisibilityMPH,Wind Direction,Wind SpeedMPH,Gust SpeedMPH,PrecipitationIn,Events,Conditions,WindDirDegrees,DateUTC
12:50 AM,88.0,57.0,35,29.74,10.0,East,8.1,-,N/A,,Scattered Clouds,100,2013-07-21 07:50:00
1:07 AM,82.4,64.4,54,29.88,10.0,ENE,23.0,34.5,N/A,Thunderstorm,Mostly Cloudy,60,2013-07-21 08:07:00
1:50 AM,82.9,64.9,54,29.73,10.0,ESE,12.7,25.3,0.00,Rain-Thunderstorm,Light Rain,120,2013-07-21 08:50:00
1:58 AM,82.4,64.4,54,29.84,10.0,East,13.8,-,0.00,Rain,Light Rain,90,2013-07-21 08:58:00
2:50 AM,81.0,64.9,58,29.73,10.0,North,6.9,-,0.00,,Clear,360,2013-07-21 09:50:00
3:50 AM,78.1,64.0,62,29.74,10.0,WSW,3.5,-,0.00,Rain,Light Rain,240,2013-07-21 10:50:00
4:50 AM,81.0,62.1,52,29.73,10.0,Calm,Calm,-,0.00,,Clear,0,2013-07-21 11:50:00
5:50 AM,81.0,61.0,50,29.73,10.0,West,4.6,-,N/A,,Clear,270,2013-07-21 12:50:00
6:50 AM,77.0,64.9,66,29.75,10.0,East,4.6,-,N/A,,Clear,80,2013-07-21 13:50:00
7:50 AM,80.1,64.0,58,29.78,10.0,ENE,5.8,-,N/A,,Clear,60,2013-07-21 14:50:00
8:50 AM,81.0,64.9,58,29.79,10.0,NE,6.9,-,N/A,,Clear,50,2013-07-21 15:50:00
9:50 AM,84.9,63.0,48,29.80,10.0,ENE,9.2,-,N/A,,Clear,60,2013-07-21 16:50:00
10:50 AM,84.9,63.0,48,29.80,10.0,ENE,10.4,-,N/A,,Partly Cloudy,70,2013-07-21 17:50:00
11:50 AM,89.1,63.0,42,29.80,10.0,ENE,12.7,-,N/A,,Clear,70,2013-07-21 18:50:00
12:50 PM,91.9,59.0,33,29.78,10.0,East,10.4,-,N/A,,Clear,90,2013-07-21 19:50:00
1:50 PM,95.0,59.0,30,29.77,10.0,East,12.7,19.6,N/A,,Clear,90,2013-07-21 20:50:00
2:50 PM,95.0,63.0,34,29.77,10.0,ENE,12.7,16.1,N/A,,Mostly Cloudy,70,2013-07-21 21:50:00
3:50 PM,93.9,66.0,40,29.75,10.0,East,19.6,28.8,N/A,,Clear,90,2013-07-21 22:50:00
4:50 PM,91.0,66.9,45,29.74,10.0,East,16.1,24.2,N/A,,Clear,80,2013-07-21 23:50:00
5:50 PM,91.0,64.0,41,29.74,10.0,East,13.8,-,N/A,,Clear,100,2013-07-22 00:50:00
6:50 PM,90.0,64.0,42,29.76,10.0,East,9.2,-,N/A,,Scattered Clouds,90,2013-07-22 01:50:00
7:50 PM,87.1,66.0,49,29.77,10.0,East,12.7,-,N/A,,Clear,80,2013-07-22 02:50:00
8:50 PM,84.9,66.0,53,29.80,10.0,East,17.3,23.0,N/A,,Clear,90,2013-07-22 03:50:00
9:50 PM,82.9,64.9,54,29.84,10.0,East,12.7,-,N/A,,Clear,90,2013-07-22 04:50:00
10:50 PM,81.0,66.9,62,29.86,10.0,ENE,10.4,-,N/A,,Clear,70,2013-07-22 05:50:00
11:50 PM,81.0,66.9,62,29.84,10.0,East,16.1,-,N/A,,Clear,80,2013-07-22 06:50:00